Voltar ao catálogo

CARTOSAT 2E

AtivoCiênciaSSO
NORAD 42767·PAYLOAD·🇮🇳 India

Lançado Jun 23, 2017 de Satish Dhawan Space Centre

Loading…

Próximas Passagens (próximas 24 horas)

TLE

AtualizadoSource: Space-Track

Época: Sep 14, 2026, 14:51 UTC

1 42767U 17036C   26257.61904252  .00003235  00000-0  15662-3 0  9990
2 42767  97.4183 315.9006 0003541  23.0744 337.0649 15.19273515511724

Acompanhe CARTOSAT 2E em tempo real com AllMySat

Download on the App Store